Theta_e
319 320 322 321 319 318 317 317 316 316 316 316 316 315 314 313 313 314 314 314 314 314 315 315 316 319 310 301 305 312 332 327 321 315 309 305 297 294 291 293 295 292 294 297 298 297 296
319 320 320 319 318 317 317 317 316 315 315 315 316 315 313 313 313 313 314 314 314 314 314 315 317 320 307 291 310 318 321 318 315 310 306 299 296 298 293 293 291 295 295 295 295 295 295
319 319 319 319 318 317 316 317 317 316 316 316 316 314 313 312 313 313 314 314 314 314 315 316 319 315 302 295 309 315 316 309 312 311 304 304 303 299 296 294 296 297 291 294 294 294 294
320 319 320 318 317 316 316 316 317 316 316 316 315 314 313 312 313 313 314 314 314 314 315 317 318 309 297 307 306 308 312 308 306 307 306 306 304 299 295 296 295 291 289 283 291 294 296
320 320 319 317 316 315 316 316 316 317 316 316 315 313 313 312 313 313 313 313 314 315 316 318 308 304 301 315 306 309 307 305 305 305 305 309 301 296 295 290 286 286 282 284 288 293 293
320 320 318 317 316 315 315 316 316 316 316 315 314 313 312 312 313 313 312 312 315 313 315 316 312 300 303 301 305 309 307 307 303 301 301 299 294 290 288 286 281 284 284 286 287 292 292
320 318 317 316 316 315 315 315 316 316 316 315 314 312 311 312 312 311 307 301 296 296 301 295 298 304 302 305 308 304 307 304 302 298 291 294 288 285 289 291 292 291 289 288 291 294 291
318 317 316 316 315 314 314 315 316 316 315 314 313 312 312 311 312 311 304 298 296 298 293 301 302 301 304 304 300 303 306 297 296 290 292 289 285 292 295 296 294 292 289 288 291 293 292
316 316 316 315 315 314 315 316 315 315 314 313 312 311 311 311 310 307 303 301 300 302 291 299 304 302 301 301 299 300 302 299 294 290 291 286 290 296 295 294 292 292 288 288 288 293 294
317 317 317 315 315 315 316 316 315 315 314 313 311 310 310 309 305 303 301 301 301 303 289 298 298 299 299 298 296 303 302 299 293 290 291 289 294 294 293 292 294 288 294 293 291 288 283
317 317 316 315 315 315 315 315 314 314 313 312 311 310 309 309 300 301 304 299 302 303 277 296 294 302 300 294 296 298 304 299 292 292 291 289 294 294 292 293 295 291 296 294 293 287 285
316 317 316 315 316 315 314 313 313 313 312 311 310 309 309 306 301 305 305 301 303 288 279 289 294 294 293 295 297 299 299 302 301 296 296 294 300 297 295 297 296 297 293 290 288 285 279
316 316 316 315 315 315 314 312 312 313 312 311 309 308 306 307 299 304 302 300 287 278 291 288 289 294 292 293 295 297 294 292 289 287 287 293 293 296 298 292 294 292 287 278 277 276 279
315 315 315 315 315 314 313 312 313 313 311 310 307 306 306 307 305 304 300 289 279 287 288 293 293 293 290 293 294 294 292 288 297 293 286 284 283 294 297 293 289 289 287 282 276 276 279
314 313 314 315 314 313 313 313 313 312 309 307 305 300 304 308 305 301 293 281 281 288 293 292 292 288 289 292 293 291 290 290 295 295 285 285 286 296 296 296 292 288 285 288 283 284 279
314 314 313 313 312 312 313 313 314 312 309 306 296 299 302 306 303 299 289 288 289 295 296 295 287 290 285 289 289 288 289 295 295 297 295 291 284 292 294 295 295 290 292 282 280 272 275
313 314 314 313 312 312 313 314 313 311 307 304 298 297 302 302 301 293 284 286 293 297 298 295 290 288 290 289 289 287 289 294 296 295 295 292 289 287 292 288 287 288 285 288 289 284 279
311 312 313 313 313 312 312 313 312 310 305 299 294 291 303 301 290 288 286 292 298 297 299 297 295 293 291 291 288 289 289 292 298 296 290 293 289 283 286 293 295 292 291 289 283 282 286
309 309 310 311 312 312 312 312 312 310 305 293 291 293 302 300 284 285 291 295 297 296 296 295 293 294 293 290 287 291 292 297 297 295 293 293 287 281 283 287 295 291 292 291 289 288 281
307 308 308 309 309 310 311 311 312 311 307 296 293 290 294 292 292 288 289 291 292 299 295 295 292 292 291 288 291 288 290 296 298 297 302 298 287 285 281 284 289 286 288 289 287 282 282
306 307 307 307 308 308 309 311 312 310 307 298 295 291 294 286 291 291 288 291 290 290 294 293 290 291 288 280 286 289 292 293 296 299 295 293 285 287 288 289 289 288 287 288 286 287 283
305 306 306 306 307 308 308 310 312 309 306 300 295 296 294 291 292 290 290 287 290 291 290 289 288 291 291 285 286 287 290 290 290 293 290 293 286 288 286 289 289 286 288 285 285 286 285
304 305 305 306 306 307 308 309 312 308 304 296 301 298 297 291 290 288 288 291 291 292 293 294 293 291 290 293 295 296 296 295 293 289 290 290 285 284 282 287 286 281 282 283 284 286 285
304 304 304 305 305 306 307 310 312 309 304 297 298 298 294 289 290 291 294 293 292 292 290 293 295 290 297 301 298 296 294 295 294 293 295 288 285 285 282 281 271 283 289 288 285 286 287
303 303 304 305 305 306 308 310 311 311 305 299 298 295 295 289 291 293 294 293 293 291 289 290 296 298 298 294 288 285 286 289 293 295 293 295 286 284 280 278 283 285 287 284 282 281 288
302 302 302 303 304 305 307 309 311 312 307 301 297 299 295 292 288 296 293 293 289 285 287 292 296 298 295 289 285 280 278 286 285 289 296 295 292 285 283 278 274 283 288 290 288 278 287
301 302 302 302 303 304 305 306 309 311 309 301 298 300 295 293 294 295 291 290 292 287 284 288 292 291 291 284 281 280 281 288 282 283 284 284 285 280 279 279 281 288 288 290 275 277 286
301 301 301 302 302 303 304 305 307 309 311 302 299 300 296 295 294 298 299 292 292 289 281 287 286 287 288 284 285 286 282 284 282 287 281 284 282 278 281 278 277 291 288 281 284 286 286
300 301 301 301 301 303 304 305 306 308 309 306 296 300 299 293 292 297 299 301 299 297 289 288 286 287 287 286 288 287 284 287 283 282 293 284 285 283 282 282 290 291 288 290 288 285 286
Wind_Speed
20 19 20 23 24 23 23 24 25 24 24 23 23 24 23 21 18 15 12 10 10 11 12 12 13 11 3 3 7 4 9 7 2 1 3 2 5 3 2 3 6 4 3 8 8 8 8
19 18 22 23 24 24 23 25 25 26 25 24 24 24 25 23 20 17 14 11 10 10 10 8 8 4 1 2 3 8 9 5 5 4 4 2 2 4 1 4 2 5 9 11 7 9 5
21 21 21 21 22 22 24 22 22 24 24 25 24 24 23 24 21 18 16 11 9 9 9 7 6 3 2 9 3 8 7 5 5 6 5 3 3 4 1 8 5 11 9 13 10 7 8
19 21 20 22 23 23 25 25 23 25 24 25 25 25 24 24 22 20 18 16 11 9 8 4 2 1 6 6 5 5 6 8 5 6 2 6 5 5 3 3 7 7 4 4 8 5 10
19 19 21 22 22 24 24 24 25 24 25 25 25 25 25 25 24 22 20 23 11 5 6 4 2 1 8 10 1 5 7 2 4 6 6 6 3 4 3 2 5 4 6 8 12 6 7
19 20 23 23 23 23 25 25 25 24 24 26 26 26 24 24 22 20 20 10 3 1 3 4 3 2 4 7 7 4 3 4 5 5 5 4 3 2 4 4 7 9 6 7 10 10 5
19 22 23 23 25 25 25 26 26 25 25 26 27 27 25 24 22 17 12 4 7 6 3 4 6 3 10 7 7 2 5 3 3 3 5 7 2 8 13 10 16 12 16 17 11 8 9
20 22 23 24 25 26 27 26 26 26 26 27 28 28 27 24 22 16 2 5 5 6 8 6 11 8 14 5 7 6 2 3 2 7 4 4 6 11 9 11 12 10 12 13 15 8 5
20 22 23 25 25 26 27 26 25 26 26 27 28 28 28 27 26 2 1 6 4 6 2 8 5 1 2 1 4 6 3 6 8 4 7 6 10 9 12 15 16 15 10 10 13 8 5
18 16 18 22 23 23 24 25 25 26 27 27 28 28 25 31 5 5 6 7 2 4 5 5 6 5 8 5 5 8 7 10 4 8 6 6 8 10 15 15 15 18 14 16 18 8 11
16 17 17 18 21 22 25 26 27 28 27 28 29 26 24 9 3 4 7 7 2 6 6 6 4 5 12 5 9 5 7 8 4 7 2 8 6 8 10 11 8 15 13 17 22 7 4
17 17 17 18 20 22 24 26 29 30 29 30 31 28 19 1 1 9 7 7 6 7 2 9 7 9 12 8 9 11 12 6 4 3 4 5 6 5 5 11 10 12 9 11 2 4 5
17 17 17 18 20 21 23 28 30 31 31 32 32 28 10 2 5 5 6 5 7 7 7 9 9 16 4 14 9 14 12 8 4 8 7 12 5 3 6 9 14 18 11 5 5 3 10
18 18 19 19 20 21 24 28 31 30 31 34 34 22 3 5 7 6 4 8 10 4 4 5 8 9 6 14 8 12 12 7 5 5 4 5 8 7 13 11 7 11 6 4 6 4 13
19 20 19 20 21 22 22 25 30 29 31 34 24 5 4 7 5 3 8 8 2 2 2 4 8 4 4 12 4 8 7 2 5 7 3 6 7 20 20 17 3 4 7 8 6 11 9
16 18 21 21 22 22 21 26 27 27 30 30 4 5 5 8 3 7 7 3 2 4 4 1 2 3 10 12 5 6 5 2 2 6 3 2 17 9 6 15 12 8 6 5 3 4 14
16 17 18 18 21 22 21 21 22 25 30 24 4 5 6 8 5 8 4 4 4 6 4 2 1 5 6 4 2 3 6 7 3 2 3 6 7 9 13 5 13 6 5 4 3 4 5
18 18 19 19 18 21 21 21 22 19 26 10 4 4 6 7 7 2 3 5 7 6 2 1 2 5 6 2 3 3 6 3 11 5 3 1 5 9 16 27 16 13 5 4 4 5 5
19 19 20 21 20 19 22 23 23 16 13 3 4 4 4 8 5 5 7 8 4 12 2 2 3 4 3 6 4 6 9 7 6 6 4 4 4 9 7 5 2 1 5 8 11 10 17
19 19 20 21 22 22 21 21 23 17 11 3 3 5 6 6 2 2 5 6 7 7 5 2 6 5 4 4 7 8 13 9 5 10 17 8 5 9 14 19 17 19 22 20 15 7 13
18 19 20 21 21 21 21 19 20 17 18 3 3 2 1 5 6 10 2 5 7 5 4 5 4 4 7 4 5 13 8 12 7 22 5 7 7 11 18 22 23 26 25 24 20 19 18
18 18 19 20 21 21 21 19 18 15 20 3 2 3 5 5 5 3 3 3 4 11 5 6 7 16 8 5 8 16 16 16 10 6 7 4 5 4 12 20 21 23 13 7 6 9 12
17 17 18 19 20 20 21 19 17 10 10 2 2 4 2 5 4 3 3 5 11 8 7 9 5 5 6 5 12 20 18 21 12 7 4 3 3 3 11 11 17 3 4 5 10 11 12
16 17 18 18 19 20 20 17 16 5 5 0 2 1 1 6 3 4 8 13 11 9 7 10 4 3 7 11 14 11 10 13 11 13 12 4 3 2 7 8 4 3 4 6 12 19 17
16 17 17 18 18 20 19 18 17 8 2 1 2 2 2 5 3 13 4 8 10 7 5 10 3 3 7 7 6 8 7 7 4 2 4 3 3 5 4 3 16 2 4 9 13 25 4
16 17 18 18 18 19 19 19 17 15 5 2 3 2 2 3 6 5 8 3 8 5 7 5 6 5 7 4 4 3 3 4 5 7 4 3 5 4 4 5 6 2 4 16 12 8 11
16 17 18 19 19 19 19 20 19 17 6 3 2 2 2 3 6 4 4 3 4 2 3 6 7 6 4 3 3 2 4 5 4 5 5 5 2 5 5 6 7 6 19 12 5 8 23
15 16 17 18 18 20 20 20 18 17 11 4 3 3 2 3 8 9 7 6 3 2 4 6 6 4 3 5 2 3 2 4 5 5 3 3 4 3 3 5 6 15 7 8 8 15 20
15 16 17 18 19 20 21 21 20 18 16 10 3 1 0 4 9 4 14 17 15 22 5 4 5 4 4 3 2 2 3 3 3 5 2 3 3 3 4 5 10 14 12 10 14 17 18
Wind_Direction
15 8 0 1 5 4 4 3 360 355 346 342 342 344 345 345 342 337 329 318 304 298 299 305 307 311 3 9 253 200 175 201 207 249 267 311 340 0 294 258 330 213 302 319 284 282 267
11 1 0 1 5 4 2 2 359 354 345 339 340 342 343 343 341 337 331 320 304 292 285 285 287 291 206 296 242 167 180 155 238 197 270 246 294 274 243 328 11 288 311 299 295 299 288
9 5 356 2 3 2 0 357 355 348 342 340 340 341 341 342 340 336 330 316 297 292 287 293 287 259 301 232 240 159 173 230 191 208 217 256 266 55 10 332 294 318 327 320 301 294 290
4 3 356 2 3 1 360 358 350 347 341 339 340 341 341 341 339 335 329 310 296 274 265 254 256 282 249 251 177 193 183 279 238 228 273 277 253 218 181 231 332 310 322 291 275 299 273
356 353 0 2 1 0 357 353 344 344 343 342 341 342 341 341 338 338 330 310 309 255 223 214 132 130 287 309 355 222 150 123 337 317 320 298 64 192 287 291 358 331 262 257 289 220 255
354 358 1 0 359 357 355 352 342 344 343 342 341 342 340 338 337 334 328 307 19 80 188 199 237 352 290 310 291 209 193 190 226 268 322 307 35 337 350 80 258 257 247 266 279 295 255
357 1 1 358 356 352 351 341 341 343 343 341 341 342 340 336 334 336 347 8 16 347 92 217 225 256 277 276 308 326 223 214 203 125 221 268 23 272 259 245 248 260 265 264 276 270 279
1 2 360 357 354 351 348 340 340 341 341 340 340 341 338 333 326 324 127 33 311 223 316 279 242 231 250 280 292 302 217 204 199 243 272 336 277 256 266 284 283 279 278 283 284 279 258
4 1 1 358 355 351 342 340 340 340 341 339 337 339 337 332 323 49 299 281 302 93 58 303 255 172 13 230 243 269 233 249 216 223 243 228 242 284 286 287 288 286 274 286 270 261 228
357 348 358 359 353 349 340 341 340 339 340 338 337 335 339 329 37 325 304 304 10 96 68 330 13 17 347 315 271 303 279 204 205 214 242 235 263 279 277 273 279 279 268 276 284 274 278
339 341 341 337 336 339 339 341 340 339 339 336 335 333 335 330 278 325 255 302 14 59 63 325 35 309 316 35 290 350 350 6 271 251 218 255 287 292 300 278 284 286 279 276 267 221 123
340 339 339 337 336 337 340 341 342 338 339 335 334 330 339 118 263 236 291 305 65 49 38 356 358 336 353 354 347 337 5 23 294 336 300 263 257 267 268 315 341 313 338 308 347 117 233
340 337 337 337 336 337 341 344 342 340 338 335 332 326 324 265 261 302 335 41 51 64 343 349 332 331 9 360 354 14 1 359 32 356 349 310 277 265 60 346 345 347 357 333 324 316 263
341 338 337 338 338 339 345 344 341 339 338 336 329 321 218 225 272 352 36 52 66 12 32 318 321 320 26 8 343 357 345 346 28 48 286 344 315 1 345 328 290 278 203 192 282 249 283
348 344 341 341 340 342 346 345 341 340 338 336 325 331 330 266 278 70 64 50 153 285 295 299 313 319 341 338 319 359 322 267 55 46 29 309 258 321 297 291 107 302 263 213 257 271 274
344 347 346 342 342 343 344 347 344 340 339 336 350 335 286 312 35 57 65 125 177 216 244 228 334 347 319 327 359 352 301 326 60 49 67 269 296 289 320 315 273 201 292 308 354 300 264
346 344 344 345 344 343 342 335 340 344 342 334 27 21 275 327 56 44 93 256 295 264 227 216 275 281 292 298 285 304 263 316 120 266 205 243 227 288 309 250 288 307 309 308 278 215 272
354 352 347 344 342 345 343 341 344 351 344 36 358 15 314 23 47 27 357 300 292 330 58 154 204 246 267 285 268 262 244 252 302 340 321 143 269 282 278 279 272 245 174 146 241 280 278
351 350 350 351 348 347 347 347 347 353 26 334 350 274 324 67 61 339 311 322 292 331 316 356 264 256 219 218 323 220 261 237 254 165 227 175 236 294 297 338 25 322 262 271 266 249 257
353 352 351 350 350 350 349 345 345 341 356 88 22 359 328 36 129 111 349 289 317 306 284 310 273 300 336 267 217 272 282 304 185 250 255 207 215 240 268 272 291 284 278 278 270 255 279
352 352 352 351 350 348 348 344 339 340 343 96 34 283 213 306 327 323 263 259 287 330 353 296 319 316 286 276 270 271 265 294 277 284 264 178 261 245 256 263 269 272 278 281 270 267 268
351 351 351 350 348 349 349 346 342 344 343 43 35 7 343 280 274 284 308 309 302 323 320 292 316 308 286 251 210 296 298 290 272 289 164 173 274 295 275 265 263 269 294 335 319 324 301
350 349 349 350 348 348 351 349 343 0 354 5 326 342 109 269 293 318 259 338 297 324 304 319 309 317 293 270 275 272 266 265 240 225 210 207 253 274 283 322 305 285 130 358 293 277 280
349 350 348 347 348 347 349 347 346 9 24 164 281 316 301 273 285 253 301 301 305 305 283 308 308 331 266 294 284 287 267 256 243 243 216 199 231 260 290 340 312 180 111 338 300 286 291
347 347 348 348 344 345 344 346 345 341 180 275 308 295 256 274 243 297 326 316 307 295 279 285 303 252 294 330 340 337 339 2 22 77 104 148 95 304 295 254 273 153 359 330 319 310 38
346 348 346 344 343 341 340 342 342 340 206 197 244 233 268 284 252 267 320 280 294 289 321 278 328 5 28 27 359 347 292 317 318 337 127 156 221 216 292 300 285 44 315 326 311 275 0
343 344 345 342 341 338 340 341 337 337 231 192 262 195 252 261 268 250 220 287 275 4 268 302 323 356 39 21 336 320 298 329 308 312 304 306 305 248 258 265 281 4 352 324 9 297 322
335 337 340 338 340 337 335 335 334 333 326 182 263 207 220 252 282 253 262 207 271 160 175 275 8 352 45 47 352 337 283 288 319 283 257 283 316 291 298 282 295 5 338 336 299 301 301
333 334 333 335 336 337 332 327 328 330 324 195 268 293 123 224 253 289 259 257 246 250 170 214 207 190 172 118 220 278 269 286 300 286 224 279 213 278 199 247 289 322 297 315 305 297 302